This demonstration page uses our WeatherBlox Daily Observations layout. Learn more.

Left ArrowRight Arrow

Hourly Observations for June 27, 2022

Temp ( °F °C ) Dew Point ( °F °C ) Humidity (%) Winds ( mph kmh ) Pressure ( in mb ) Visibility ( mi km ) Precip ( " mm )
12:53 am 00:53 Clear 61 16.1 50 10 67 67 Calm 30.35 1028 10 16 0.00 0.00
1:53 am 01:53 Partly Cloudy 60 15.6 50 10 70 70 SSW 5 7 30.35 1028 10 16 0.00 0.00
2:53 am 02:53 Mostly Clear 60 15.6 51 10.6 72 72 Calm 30.34 1027 10 16 0.00 0.00
3:53 am 03:53 Mostly Cloudy 60 15.6 51 10.6 72 72 Calm 30.33 1027 10 16 0.00 0.00
4:53 am 04:53 Mostly Cloudy 60 15.6 53 11.7 78 78 Calm 30.33 1027 10 16 0.00 0.00
5:53 am 05:53 Mostly Cloudy 61 16.1 53 11.7 75 75 Calm 30.33 1027 10 16 0.00 0.00
6:53 am 06:53 Sunny 60 15.6 52 11.1 75 75 Calm 30.34 1028 10 16 0.00 0.00
7:53 am 07:53 Mostly Cloudy 64 17.8 52 11.1 65 65 ESE 5 7 30.34 1027 10 16 0.00 0.00
8:53 am 08:53 Cloudy 68 20 46 7.8 45 45 SSE 6 9 30.35 1028 10 16 0.00 0.00
9:53 am 09:53 Cloudy 71 21.7 49 9.4 46 46 S 9 15 30.35 1028 10 16 0.00 0.00
10:53 am 10:53 Cloudy 73 22.8 48 8.9 41 41 S 9 15 30.35 1028 10 16 0.00 0.00
11:53 am 11:53 Cloudy 74 23.3 48 8.9 40 40 SSE 8 13 30.34 1028 10 16 0.00 0.00
12:53 pm 12:53 Cloudy 77 25 47 8.3 35 35 S 9 15 30.33 1027 10 16 0.00 0.00
1:53 pm 13:53 Mostly Cloudy 78 25.6 45 7.2 31 31 S 10 17 30.30 1026 10 16 0.00 0.00
2:53 pm 14:53 Mostly Cloudy 79 26.1 47 8.3 32 32 SSW 9 15 30.27 1025 10 16 0.00 0.00
3:53 pm 15:53 Mostly Sunny 79 26.1 47 8.3 32 32 SSW 8 13 30.25 1025 10 16 0.00 0.00
4:53 pm 16:53 Sunny 80 26.7 46 7.8 30 30 SSW 10 17 30.23 1024 10 16 0.00 0.00
5:53 pm 17:53 Sunny 79 26.1 44 6.7 29 29 SSW 10 17 30.22 1023 10 16 0.00 0.00
6:53 pm 18:53 Sunny 79 26.1 47 8.3 32 32 S 10 17 30.20 1023 10 16 0.00 0.00
7:53 pm 19:53 Sunny 78 25.6 46 7.8 32 32 S 9 15 30.20 1023 10 16 0.00 0.00
8:53 pm 20:53 Sunny 74 23.3 48 8.9 40 40 S 9 15 30.19 1023 10 16 0.00 0.00
9:53 pm 21:53 Clear 70 21.1 48 8.9 46 46 S 6 9 30.21 1023 10 16 0.00 0.00
10:53 pm 22:53 Clear 68 20 47 8.3 47 47 S 9 15 30.22 1023 10 16 0.00 0.00
11:53 pm 23:53 Clear 65 18.3 48 8.9 54 54 SSW 13 20 30.21 1023 10 16 0.00 0.00

Powered by AerisWeather